Location: Unspecified
(0.0000°N, 0.0000°E)
Time: 18:54:38
(UTC+00:00)

Vanguard 2 - Pass Details

Date: 13 December 2017
Orbit: 553 x 2939 km, 32.9° (Epoch: 23 June)

Event Time Altitude Azimuth Distance (km) Brightness Sun altitude
Rises 01:27:06 0° 277° (W) 3,765 - -57.6°
Reaches altitude 10° 01:29:37 10° 267° (W) 3,076 - -57.2°
Maximum altitude 01:36:41 34° 204° (SSW) 2,396 - -56.0°
Exits shadow 01:40:30 28° 170° (S) 2,999 10.6 -55.3°
Drops below altitude 10° 01:47:40 10° 145° (SE) 4,805 12.0 -54.0°
Sets 01:52:49 0° 136° (SE) 6,177 12.7 -53.0°
